Weather Roundup
Issued by NWS Corpus Christi, TX

Home | Current Version | Previous Version | Text Only | Print | Product List | Glossary On
Versions: 1 2 3 4 5 6 7 8 9 10 11 12 13 14 15 16 17 18 19 20 21 22 23 24 25 26 27 28 29 30 31 32 33 34 35 36 37 38 39 40 41 42 43 44 45 46 47 48 49 50
000
ASUS44 KCRP 240710
HRRCRP

SOUTH TEXAS REGIONAL WEATHER ROUNDUP
NATIONAL WEATHER SERVICE CORPUS CHRISTI TX
200 AM CDT TUE OCT 24 2017


TXZ229>244-240800-
...CORPUS CHRISTI AREA OBSERVATIONS...

CITY           SKY/WX    TMP DP  RH WIND       PRES   REMARKS
CORPUS CHRISTI PTCLDY    60  54  80 NW3       30.12F
NAS CORPUS CHR NOT AVBL
ROCKPORT       CLEAR     65  58  78 E5        30.12R
KINGSVILLE ARP FAIR      60  56  87 CALM      30.14S
ALICE          CLEAR     59  52  77 N6        30.13S
$$

...VICTORIA AREA OBSERVATIONS...

CITY           SKY/WX    TMP DP  RH WIND       PRES   REMARKS
PORT LAVACA    CLEAR     58  54  86 N5        30.14R
VICTORIA       CLEAR     55  52  89 N7        30.14S
BEEVILLE       FAIR      56  49  75 CALM      30.14S
PLEASANTON     PTCLDY    56  50  82 CALM      30.17R
SAN ANTONIO    PTCLDY    58  50  75 NW7       30.19R
$$

...LAREDO AREA OBSERVATIONS...

CITY           SKY/WX    TMP DP  RH WIND       PRES   REMARKS
LAREDO         PTCLDY    68  58  70 E5        30.14S
COTULLA        CLEAR     62  52  69 E6        30.15R
DEL RIO        CLEAR     60  56  86 CALM      30.17R
MCALLEN        PTCLDY    71  65  81 E5        30.11R
HEBBRONVILLE   PTCLDY    62  54  75 CALM      30.15S
$$

...OTHER TEXAS OBSERVATIONS...

CITY           SKY/WX    TMP DP  RH WIND       PRES   REMARKS
BROWNSVILLE    PTCLDY    66  64  93 CALM      30.10S
HOUSTON        CLEAR     58  54  86 W3        30.13S
COL. STATION   CLEAR     61  52  72 N9        30.18R
AUSTIN         CLEAR     60  54  80 NW7       30.20R
WACO           CLEAR     59  49  69 N10       30.23R
FORT WORTH     CLEAR     61  42  49 N9        30.24R
WICHITA FALLS  CLEAR     51  40  65 NW9       30.31R
LUBBOCK        PTCLDY    49  33  54 NE12      30.43R
EL PASO        CLEAR     67  34  29 NE13      30.31R
$$

...MARINE OBSERVATIONS...

STATION/POSITION TIME  SKY/WX   TEMP    WIND        PRES    VSBY  WAVE   SWELL
                                AIR SEA DIR/SP/G                  HT/PER HT/PER
                 (UTC)          (F)     (DEG/KT/KT) (MB)    (MI)  (FT/S) (FT/S)
PORT ARANSAS     NOT AVBL
BUOY 90 E PORT A 0550            75 82   60/  6/  8 1019.6          2/ 8   2/ 8
BUOY 200 E PT IS 0650            76 83   30/ 10/ 12 1018.4S         3/ 8   3/ 8
BUOY 15 E GALVES 0550            74 78  310/  6/  6 1019.6          1/ 8   2/ 8
$$




USA.gov is the U.S. government's official web portal to all federal, state and local government web resources and services.